Weather History for Tanana, AK

Change the Weather History Date:

Monday, August 6, 2012

  Actual Average Record
Temperature  
Mean Temperature 52 °F -  
Max Temperature 66 °F 68 °F 84 °F (1968)
Min Temperature 37 °F 50 °F 32 °F (1959)
Degree Days  
Heating Degree Days 14    
Growing Degree Days 2 (Base 50)    
Moisture  
Dew Point 44 °F    
Average Humidity 75    
Maximum Humidity 97    
Minimum Humidity 48    
Precipitation  
Precipitation 0.00 in - - ()
Sea Level Pressure  
Sea Level Pressure 29.93 in    
Wind  
Wind Speed 3 mph (WNW)    
Max Wind Speed 7 mph    
Max Gust Speed -    
Visibility 10 miles    
Events Fog , Rain    
Averages and records for this station are not official NWS values.
T = Trace of Precipitation, MM = Missing Value Source: NWS Daily Summary

Daily Weather History Graph

Daily Weather History Graph

Search for Another Location

Airport:

Trip Planner

Search our weather history database for the weather conditions in past years. The results will help you decide how hot, cold, wet, or windy it might be!

Date:

Astronomy

Aug. 06, 2012 Rise Set
Actual Time 5:24 AM AKDT 11:01 PM AKDT
Civil Twilight 3:57 AM AKDT 12:25 AM AKDT
Nautical Twilight Sun does not rise Sun does not rise
Astronomical Twilight Sun does not rise Sun does not rise
Moon 10:33 PM AKDT (8/6) 12:59 PM AKDT (8/6)
Length of Visible Light 20h 28m
Length of Day
17h 37m
Waning Gibbous, 77% of the Moon is Illuminated
Aug 6
Waning Gibbous
Aug 9
Last Quarter
Aug 17
New
Aug 24
First Quarter
Aug 31
Full

Hourly Weather History & Observations

Time (AKDT) Temp. Windchill Dew Point Humidity Pressure Visibility Wind Dir Wind Speed Gust Speed Precip Events Conditions
12:52 AM 44.1 °F - 41.0 °F 89% 29.98 in 10.0 mi Calm Calm - N/A   Clear
1:52 AM 42.1 °F 40.2 °F 39.9 °F 92% 29.99 in 10.0 mi NNE 3.5 mph - N/A   Clear
2:52 AM 39.9 °F - 37.9 °F 93% 29.99 in 10.0 mi Calm Calm - N/A   Clear
3:52 AM 37.9 °F 35.5 °F 37.0 °F 97% 29.99 in 10.0 mi North 3.5 mph - N/A   Clear
4:52 AM 37.9 °F 35.5 °F 36.0 °F 93% 29.98 in 10.0 mi NNE 3.5 mph - N/A   Clear
5:52 AM 37.0 °F 34.5 °F 35.1 °F 93% 29.98 in 10.0 mi North 3.5 mph - N/A Fog Patches of Fog
6:52 AM 39.0 °F 35.7 °F 37.0 °F 93% 29.98 in 10.0 mi NNW 4.6 mph - N/A Fog Patches of Fog
7:52 AM 45.0 °F - 42.1 °F 90% 29.98 in 10.0 mi Calm Calm - N/A Fog Patches of Fog
8:50 AM 48.2 °F - 46.4 °F 93% 29.97 in 6.0 mi Calm Calm - N/A   Mostly Cloudy
8:52 AM 48.0 °F - 46.0 °F 93% 29.98 in 6.0 mi Calm Calm - N/A   Mostly Cloudy
9:20 AM 48.2 °F - 46.4 °F 93% 29.97 in 10.0 mi Calm Calm - N/A   Scattered Clouds
9:52 AM 51.1 °F - 46.9 °F 86% 29.98 in 10.0 mi Calm Calm - N/A   Scattered Clouds
10:52 AM 54.0 °F - 46.0 °F 75% 29.97 in 10.0 mi SW 3.5 mph - N/A   Scattered Clouds
11:52 AM 57.9 °F - 48.0 °F 70% 29.96 in 10.0 mi SW 3.5 mph - N/A   Scattered Clouds
12:52 PM 62.1 °F - 46.9 °F 58% 29.93 in 10.0 mi Variable 4.6 mph - N/A   Scattered Clouds
1:52 PM 63.0 °F - 46.9 °F 56% 29.92 in 10.0 mi SW 5.8 mph - N/A   Scattered Clouds
2:52 PM 64.0 °F - 46.9 °F 54% 29.91 in 10.0 mi Variable 4.6 mph - N/A   Scattered Clouds
3:52 PM 64.9 °F - 46.9 °F 52% 29.88 in 10.0 mi Calm Calm - N/A   Scattered Clouds
4:52 PM 66.0 °F - 46.0 °F 48% 29.87 in 10.0 mi West 5.8 mph - N/A   Mostly Cloudy
5:52 PM 64.0 °F - 45.0 °F 50% 29.86 in 10.0 mi WNW 6.9 mph - N/A   Mostly Cloudy
6:52 PM 64.0 °F - 46.0 °F 52% 29.84 in 10.0 mi West 5.8 mph - N/A   Mostly Cloudy
7:52 PM 61.0 °F - 46.0 °F 58% 29.83 in 10.0 mi WNW 4.6 mph - N/A   Mostly Cloudy
8:52 PM 60.1 °F - 46.0 °F 60% 29.83 in 10.0 mi West 5.8 mph - N/A   Mostly Cloudy
9:52 PM 59.0 °F - 45.0 °F 60% 29.83 in 10.0 mi West 4.6 mph - N/A   Clear
10:52 PM 55.0 °F - 46.9 °F 74% 29.84 in 10.0 mi NNW 5.8 mph - N/A   Partly Cloudy
11:52 PM 55.0 °F - 46.9 °F 74% 29.84 in 10.0 mi NW 6.9 mph - 0.00 in Rain Light Rain